OPS 4682 DEB, 38362

Orbit data source: Space-Track

OPS 4682 DEB, 38362 is space debris in LEO originally from a launch on Sat, 03 Apr 1965 UTC launched from the Air Force Western Test Range (AFWTR). Debris objects in space refer to the collection of defunct objects orbiting the Earth. Examples of debris include non-operational satellites, rocket bodies, and fragments generated from explosions, collisions, or faulty payload assembly.

Loading next visibility...
Identifier
38362, 1965-027BP
Orbit
LEO
Country
Flag of USUS
Related business
Manufacturer
Unknown
Mission
Spacecraft
Bus & Motor
Unknown
Mass
Unknown
Launch date (UTC)
1965-04-03 (61 years ago)
Launch vehicle
Unknown
Launch site
Air Force Western Test Range (AFWTR)
Object type
Payload
Rocket body
Debris
Shape & HBR
Unknown shape, 1.1 m
Radar Cross Section
Small (<0.1 m²)

Expand to show TLE details & history
Last TLE update: 1 week ago

TLE from 1 week ago
0 OPS 4682 DEB
1 38362U 65027BP  25286.92842358  .00000030  00000-0  76930-4 0  9998
2 38362  90.2485   5.4235 0045257  51.2301 309.2850 12.96948194431475
Epoch: 2025-10-13T22:16Z
TLE epoch observation values (Epoch: 2025-10-13T22:16:55.797Z)
Latitude
0.00004°
Longitude
8.46685°
Altitude
1,255.109 km
Speed
7.238 km/s
True Right ascension
00h 21m 41s
True Declination
0° 00' 00"
Sunlit
Object was in full shadow at epoch
Visualization orbit readout
Latitude
Unknown
Longitude
Unknown
Altitude
Unknown
Speed
Unknown
Apparent Right ascension
Unknown
Apparent Declination
Unknown
Sunlit
N/A
Visualization observer readout
Local Sidereal Time
08:31:22
Azimuth
Unknown
Elevation
Unknown
Doppler factor
Unknown
Orbital elements
Apogee altitude
1,305.817 km
Perigee altitude
1,236.58 km
Semi-major axis
7,649.336 km
Eccentricity
0.00453
Inclination
90.2485°
RAAN
5.4235°
Arg. of periapsis
51.2301°
True anomaly
308.88216°
Mean anomaly
309.285°
Eccentric anomaly
309.08372°
Mean motion
3.2442 °/min
Orbital period
110.97 mins
BSTAR
0.00007693
Loading maneuver chart data...
Computing Atmospheric mass density...
Loading historical data...
Loading historical data...
Loading historical data...
Loading historical data...
Loading historical data...
Loading historical data...
Loading historical data...

Documentation

Showing up to 5 results
|